This is the latest recevied weather packets stored in our database for station/object LU8FCJ-5. If no packets are shown the sender has not sent any weather packets the latest 10 day(s).
| Time | Temp. | Humidity | Pressure | Rain* | Wind** | Luminosity | Snow |
|---|---|---|---|---|---|---|---|
| 1778300436 | 6.67° C | 92% | 1013.7 hPa | 0 mm | - | - | - |
| 1778300122 | 6.67° C | 91% | 1013.9 hPa | 0 mm | - | - | - |
| 1778299812 | 6.67° C | 91% | 1013.6 hPa | 0 mm | - | - | - |
| 1778299501 | 6.67° C | 90% | 1013.6 hPa | 0 mm | - | - | - |
| 1778299342 | 6.67° C | 88% | 1013.5 hPa | 0 mm | - | - | - |
| 1778299200 | 6.67° C | 88% | 1013.5 hPa | 0 mm | - | - | - |
| 1778298880 | 7.22° C | 81% | 1013.6 hPa | 0 mm | - | - | - |
| 1778298571 | 7.78° C | 76% | 1013.3 hPa | 0 mm | - | - | - |
| 1778298262 | 8.33° C | 75% | 1013.1 hPa | 0 mm | - | - | - |
| 1778297950 | 8.33° C | 74% | 1013.2 hPa | 0 mm | - | - | - |
| 1778297637 | 8.33° C | 73% | 1013 hPa | 0 mm | - | - | - |
| 1778297327 | 8.33° C | 73% | 1013.1 hPa | 0 mm | - | - | - |
| 1778297017 | 7.78° C | 74% | 1013 hPa | 0 mm | - | - | - |
| 1778296707 | 7.78° C | 74% | 1013.1 hPa | 0 mm | - | - | - |
| 1778296396 | 7.78° C | 73% | 1013 hPa | 0 mm | - | - | - |
| 1778296086 | 7.78° C | 73% | 1012.6 hPa | 0 mm | - | - | - |
| 1778295776 | 7.22° C | 73% | 1012.7 hPa | 0 mm | - | - | - |
| 1778295466 | 7.22° C | 72% | 1013 hPa | 0 mm | - | - | - |
| 1778295155 | 7.78° C | 71% | 1013 hPa | 0 mm | - | - | - |
| 1778294847 | 7.78° C | 70% | 1012.9 hPa | 0 mm | - | - | - |
| 1778294536 | 7.78° C | 69% | 1012.6 hPa | 0 mm | - | - | - |
| 1778294225 | 7.78° C | 68% | 1012.8 hPa | 0 mm | - | - | - |
| 1778293917 | 7.78° C | 67% | 1012.9 hPa | 0 mm | - | - | - |
| 1778293605 | 8.33° C | 67% | 1012.7 hPa | 0 mm | - | - | - |
| 1778293295 | 8.33° C | 66% | 1012.6 hPa | 0 mm | - | - | - |
* Rain latest hour (hover to see other rain measurements)
** Current wind speed in m/s (hover to see current wind gust speed)